Location: *
(33.8649°S, 62.1526°E)
Time: 13:09:36
(UTC+00:00)

OAO 1 Rocket - Pass Details

Date: 17 January 2021
Orbit: 744 x 755 km, 35.0° (Epoch: 02 March)

Event Time Altitude Azimuth Distance (km) Brightness Sun altitude
Rises 16:18:41 0° 262° (W) 3,209 8.9 -14.0°
Reaches altitude 10° 16:21:09 10° 261° (W) 2,285 7.9 -14.4°
Maximum altitude 16:26:33 84° 173° (S) 767 4.5 -15.3°
Enters shadow 16:30:22 20° 84° (E) 1,699 5.8 -15.9°
